EW2734 Weather Reports


time (UTC)temp
F
wind
direction
speed
knots
gust
knots
rain 1hr
in
rain 24hr
in
rain mn
in
humidity
%
barometer
mb
20260906200036 95 135 6.1 12.2 0.00 0.02 0.00 38 1008.4
20260906194535 95 119 7.0 14.8 0.00 0.02 0.00 39 1008.6
20260906193031 94 103 7.8 12.2 0.00 0.02 0.00 40 1008.6
20260906191532 92 124 11.3 15.6 0.00 0.02 0.00 41 1008.8
20260906190031 92 110 8.7 13.0 0.00 0.02 0.00 41 1008.9
20260906184530 94 92 6.1 14.8 0.00 0.02 0.00 40 1009.1
20260906183028 92 108 4.3 11.3 0.00 0.02 0.00 45 1009.3
20260906181524 91 75 4.3 8.7 0.00 0.02 0.00 47 1009.7
20260906180022 91 97 0.9 6.1 0.00 0.02 0.00 50 1010.1
20260906174520 90 17 0.0 2.6 0.00 0.02 0.00 52 1010.5
20260906173016 89 93 0.9 5.2 0.00 0.02 0.00 54 1010.8
20260906171512 87 102 1.7 6.1 0.00 0.02 0.00 57 1010.9
20260906170011 85 78 0.9 4.3 0.00 0.02 0.00 60 1011.1
20260906164505 83 70 0.9 2.6 0.00 0.02 0.00 62 1011.1
20260906163005 82 92 0.0 3.5 0.00 0.02 0.00 63 1011.2
20260906161604 82 77 0.9 5.2 0.00 0.02 0.00 63 1011.3
20260906160059 81 81 0.0 3.5 0.00 0.02 0.00 63 1011.2
20260906154604 81 76 1.7 4.3 0.00 0.02 0.00 63 1011.1
20260906153057 81 97 0.9 4.3 0.00 0.02 0.00 61 1010.9
20260906151555 81 90 2.6 6.1 0.00 0.02 0.00 61 1010.6
20260906144550 80 73 0.9 4.3 0.00 0.02 0.00 66 1010.6
20260906143047 79 53 1.7 4.3 0.00 0.02 0.00 67 1010.7
20260906141555 78 74 1.7 4.3 0.00 0.02 0.00 68 1010.6
20260906140046 76 79 0.9 3.5 0.00 0.02 0.00 70 1010.5
20260906134542 76 90 0.0 3.5 0.00 0.02 0.00 71 1010.3
20260906133040 75 82 0.0 2.6 0.00 0.02 0.00 71 1010.1
20260906131539 74 79 0.9 3.5 0.00 0.02 0.00 73 1010.0
20260906130047 74 81 0.0 2.6 0.00 0.02 0.00 74 1009.7
20260906124537 73 82 1.7 3.5 0.00 0.02 0.00 74 1009.4
20260906123041 73 83 0.0 0.9 0.00 0.02 0.00 74 1009.3
20260906121533 74 87 0.0 2.6 0.00 0.02 0.00 72 1009.1
20260906120030 74 74 0.0 2.6 0.00 0.02 0.00 71 1009.2
20260906114531 74 81 0.0 2.6 0.00 0.02 0.00 72 1008.9
20260906113026 74 84 0.0 0.0 0.00 0.02 0.00 74 1008.9
20260906111525 75 74 0.9 1.7 0.00 0.02 0.00 74 1009.0
20260906110025 75 93 0.0 0.0 0.00 0.02 0.00 75 1009.0
20260906104538 75 93 0.0 0.0 0.00 0.02 0.00 75 1008.8
20260906103040 75 93 0.0 0.0 0.00 0.02 0.00 75 1008.8
20260906101523 75 93 0.0 0.0 0.00 0.02 0.00 75 1008.7
20260906100027 76 93 0.0 0.0 0.00 0.02 0.00 74 1008.6
20260906094527 76 93 0.0 0.0 0.00 0.02 0.00 73 1008.6
20260906093032 77 93 0.0 0.0 0.00 0.02 0.00 71 1008.5
20260906091526 77 125 0.9 2.6 0.00 0.02 0.00 70 1008.5
20260906090021 78 214 0.9 4.3 0.00 0.02 0.00 65 1008.6
20260906084520 78 247 0.9 2.6 0.00 0.02 0.00 65 1008.6
20260906083018 79 214 2.6 5.2 0.00 0.02 0.00 63 1008.4
20260906081519 79 212 1.7 6.1 0.00 0.02 0.00 62 1008.4
20260906080015 78 197 4.3 7.8 0.00 0.02 0.00 63 1008.4
20260906074514 76 202 2.6 4.3 0.00 0.02 0.00 69 1008.5
20260906073011 75 242 0.9 1.7 0.00 0.02 0.00 76 1008.7
20260906071510 78 150 0.0 1.7 0.00 0.02 0.00 69 1008.5
20260906070018 76 236 0.0 0.0 0.00 0.02 0.00 71 1008.6
20260906064508 76 236 0.0 0.0 0.00 0.02 0.00 72 1008.8
20260906063006 76 236 0.0 0.0 0.00 0.02 0.00 72 1008.8
20260906061509 76 236 0.0 0.0 0.00 0.02 0.00 72 1008.7
20260906060003 77 248 0.0 0.0 0.00 0.02 0.00 71 1008.5
20260906054502 76 75 0.0 0.0 0.00 0.02 0.00 72 1008.3
20260906053059 76 76 0.0 2.6 0.00 0.02 0.00 73 1008.2
20260906051556 77 75 1.7 4.3 0.00 0.02 0.00 72 1008.0
20260906044552 78 91 0.0 3.5 0.00 0.02 0.02 68 1007.9
20260906043051 79 78 0.9 4.3 0.00 0.02 0.02 66 1008.0
20260906041550 79 77 1.7 4.3 0.00 0.02 0.02 67 1008.0
20260906040056 80 76 2.6 4.3 0.00 0.02 0.02 66 1007.8
20260906034553 83 91 6.1 8.7 0.00 0.02 0.02 60 1007.8
20260906033050 83 96 7.0 8.7 0.00 0.02 0.02 60 1007.6
20260906031607 83 102 4.3 7.8 0.00 0.02 0.02 61 1007.2
20260906030046 83 94 5.2 7.8 0.00 0.02 0.02 61 1007.2
20260906024557 83 92 5.2 8.7 0.00 0.02 0.02 61 1007.2
20260906023050 83 114 7.0 9.6 0.00 0.02 0.02 60 1007.0
20260906021545 82 108 7.0 13.0 0.00 0.02 0.02 62 1006.9
20260906020044 81 108 9.6 16.5 0.00 0.02 0.02 65 1007.0
20260906014544 82 91 11.3 13.9 0.01 0.02 0.02 65 1007.1
20260906013043 80 88 2.6 5.2 0.01 0.02 0.02 71 1006.6
20260906011542 77 70 2.6 7.0 0.01 0.02 0.02 84 1006.2
20260906010048 74 78 5.2 10.4 0.02 0.02 0.02 91 1006.6
20260906004543 85 99 4.3 7.8 0.01 0.01 0.01 58 1006.6
20260906003038 89 79 10.4 15.6 0.01 0.01 0.01 50 1006.4
20260906001538 84 104 10.4 14.8 0.01 0.01 0.01 75 1006.1
20260906000039 93 96 2.6 10.4 0.00 0.00 0.00 45 1006.0
20260905234540 96 100 7.0 10.4 0.00 0.00 0.00 35 1005.6
20260905233035 96 79 6.1 10.4 0.00 0.00 0.00 36 1005.5
20260905231534 97 95 7.8 13.9 0.00 0.00 0.00 35 1005.4
20260905230035 97 117 7.8 12.2 0.00 0.00 0.00 35 1005.1
20260905224533 98 89 7.8 14.8 0.00 0.00 0.00 35 1005.0
20260905223032 98 115 7.8 12.2 0.00 0.00 0.00 35 1004.8
20260905221532 99 105 4.3 13.9 0.00 0.00 0.00 35 1004.8
20260905220033 98 117 5.2 14.8 0.00 0.00 0.00 35 1005.0
20260905214529 99 142 7.8 13.0 0.00 0.00 0.00 34 1005.0
20260905213026 99 95 7.8 20.9 0.00 0.00 0.00 34 1005.1
20260905211547 98 109 7.0 16.5 0.00 0.00 0.00 35 1005.6
20260905210021 98 114 5.2 12.2 0.00 0.00 0.00 36 1005.7
20260905204518 98 133 6.1 10.4 0.00 0.00 0.00 35 1006.1
20260905203017 97 148 7.0 13.0 0.00 0.00 0.00 36 1006.3
20260905201515 97 90 7.8 13.0 0.00 0.00 0.00 37 1006.4